Starlink 31155

decayed
NORAD ID: 58728 Int'l Des: 2024-005 Owner: SPXS Country: US Constellation: starlink
LEOCIRCULAR

关于 Starlink 31155

正在加载描述...

高度历史

Altitude vs Time

uPlot chart will show altitude changes over time

两行轨道根数

1 58728U 24005A 25090.40950584 .02605097 89416-5 11712-2 0 9998
2 58728 42.9870 250.9910 0010941 323.4490 128.5854 16.21029081 69208
Epoch: Mar 31, 2025 • Age: 5304 hours

当前状态

Position data unavailable
发射日期 Jan 7, 2024
运行时间 1.8 years
衰减日期 Mar 31, 2025
类型 internet

技术详情

分类 Payload
质量 730.00 kg
干质量 700.00 kg
总质量 730.00 kg
长度 0.30 m
直径 4.10 m
跨度 29.00 m
形状 Box + pan
制造商 SPXS
平台类型 Starlink V2M
阶段状态 Unknown Transfer Status
所有者/国家 SPXS/US

大型星座

Loading constellations...